Time,TemperatureF,DewpointF,PressureIn,WindDirection,WindDirectionDegrees,WindSpeedMPH,WindSpeedGustMPH,Humidity,HourlyPrecipIn,Conditions,Clouds,dailyrainin,SoftwareType,DateUTC
2013-01-19 00:02:00,37.8,16.8,28.73,SSE,147,4.5,6.3,42,0.00,,CLR,0.00,VWS V14.00,2013-01-19 06:02:00,
2013-01-19 00:07:00,37.8,16.8,28.73,SE,133,7.6,7.6,42,0.00,,CLR,0.00,VWS V14.00,2013-01-19 06:07:00,
2013-01-19 00:12:00,37.9,16.9,28.73,SSE,151,4.0,5.8,42,0.00,,CLR,0.00,VWS V14.00,2013-01-19 06:12:00,
2013-01-19 00:17:00,37.9,16.9,28.73,SE,136,3.1,6.3,42,0.00,,CLR,0.00,VWS V14.00,2013-01-19 06:17:00,
2013-01-19 00:22:00,38.1,17.6,28.73,SE,137,4.0,8.1,43,0.00,,CLR,0.00,VWS V14.00,2013-01-19 06:22:00,
2013-01-19 00:27:00,38.3,17.8,28.73,SSE,149,4.9,8.1,43,0.00,,CLR,0.00,VWS V14.00,2013-01-19 06:27:00,
2013-01-19 00:32:00,38.7,18.1,28.73,SE,143,5.4,7.6,43,0.00,,CLR,0.00,VWS V14.00,2013-01-19 06:32:00,
2013-01-19 00:37:00,39.0,18.4,28.73,SSE,155,5.8,10.5,43,0.00,,CLR,0.00,VWS V14.00,2013-01-19 06:37:00,
2013-01-19 00:42:00,39.6,17.8,28.73,SE,131,5.8,7.6,41,0.00,,CLR,0.00,VWS V14.00,2013-01-19 06:42:00,
2013-01-19 00:47:00,39.6,17.8,28.73,SE,134,5.8,8.1,41,0.00,,CLR,0.00,VWS V14.00,2013-01-19 06:47:00,
2013-01-19 00:52:00,39.7,18.0,28.73,SSE,152,5.4,9.6,41,0.00,,CLR,0.00,VWS V14.00,2013-01-19 06:52:00,
2013-01-19 00:57:00,39.9,18.1,28.73,SSE,152,10.1,10.1,41,0.00,,CLR,0.00,VWS V14.00,2013-01-19 06:57:00,
2013-01-19 01:02:00,39.9,18.1,28.73,SE,136,5.4,7.6,41,0.00,,FEW250,0.00,VWS V14.00,2013-01-19 07:02:00,
2013-01-19 01:07:00,39.9,18.1,28.73,SE,146,5.8,8.7,41,0.00,,FEW250,0.00,VWS V14.00,2013-01-19 07:07:00,
2013-01-19 01:12:00,39.9,18.1,28.73,SSE,152,8.1,9.6,41,0.00,,FEW250,0.00,VWS V14.00,2013-01-19 07:12:00,
2013-01-19 01:17:00,39.9,18.1,28.73,SSE,157,5.8,9.6,41,0.00,,FEW250,0.00,VWS V14.00,2013-01-19 07:17:00,
2013-01-19 01:22:00,39.9,18.1,28.73,SE,141,6.3,6.7,41,0.00,,FEW250,0.00,VWS V14.00,2013-01-19 07:22:00,
2013-01-19 01:27:00,39.9,18.1,28.73,ESE,113,5.8,10.1,41,0.00,,FEW250,0.00,VWS V14.00,2013-01-19 07:27:00,
2013-01-19 01:32:00,39.9,17.6,28.73,SE,143,5.8,6.3,40,0.00,,FEW250,0.00,VWS V14.00,2013-01-19 07:32:00,
2013-01-19 01:37:00,40.1,18.3,28.73,SSE,148,7.6,10.1,41,0.00,,FEW250,0.00,VWS V14.00,2013-01-19 07:37:00,
2013-01-19 01:42:00,40.3,17.9,28.73,SE,144,6.3,10.1,40,0.00,,FEW250,0.00,VWS V14.00,2013-01-19 07:42:00,
2013-01-19 01:47:00,40.5,18.1,28.73,SSE,162,8.1,10.1,40,0.00,,FEW250,0.00,VWS V14.00,2013-01-19 07:47:00,
2013-01-19 01:52:00,40.5,18.1,28.73,SSE,153,8.7,10.5,40,0.00,,FEW250,0.00,VWS V14.00,2013-01-19 07:52:00,
2013-01-19 01:57:00,40.3,17.9,28.73,SSE,147,5.8,10.5,40,0.00,,FEW250,0.00,VWS V14.00,2013-01-19 07:57:00,
2013-01-19 02:02:00,40.1,17.7,28.73,SE,127,6.3,6.3,40,0.00,,BKN250,0.00,VWS V14.00,2013-01-19 08:02:00,
2013-01-19 02:07:00,39.9,17.6,28.73,SSE,168,4.0,10.5,40,0.00,,BKN250,0.00,VWS V14.00,2013-01-19 08:07:00,
2013-01-19 02:12:00,39.9,18.1,28.73,SSE,156,4.0,5.8,41,0.00,,BKN250,0.00,VWS V14.00,2013-01-19 08:12:00,
2013-01-19 02:17:00,39.7,18.0,28.73,SSE,152,3.6,6.3,41,0.00,,BKN250,0.00,VWS V14.00,2013-01-19 08:17:00,
2013-01-19 02:22:00,39.7,18.0,28.73,SE,142,4.5,6.3,41,0.00,,BKN250,0.00,VWS V14.00,2013-01-19 08:22:00,
2013-01-19 02:27:00,39.7,18.0,28.73,SSE,164,4.0,7.6,41,0.00,,BKN250,0.00,VWS V14.00,2013-01-19 08:27:00,
2013-01-19 02:32:00,39.7,18.0,28.73,SSE,158,3.6,5.4,41,0.00,,BKN250,0.00,VWS V14.00,2013-01-19 08:32:00,
2013-01-19 02:37:00,39.7,18.0,28.73,SSE,148,5.4,6.3,41,0.00,,BKN250,0.00,VWS V14.00,2013-01-19 08:37:00,
2013-01-19 02:42:00,39.6,17.8,28.73,SSE,158,3.1,5.8,41,0.00,,BKN250,0.00,VWS V14.00,2013-01-19 08:42:00,
2013-01-19 02:47:00,39.4,17.7,28.73,SE,143,4.0,6.3,41,0.00,,BKN250,0.00,VWS V14.00,2013-01-19 08:47:00,
2013-01-19 02:52:00,39.2,17.5,28.73,SE,133,6.3,6.3,41,0.00,,BKN250,0.00,VWS V14.00,2013-01-19 08:52:00,
2013-01-19 02:57:00,38.8,17.7,28.73,SE,141,6.3,6.7,42,0.00,,BKN250,0.00,VWS V14.00,2013-01-19 08:57:00,
2013-01-19 03:02:00,39.0,17.9,28.73,SE,136,5.4,6.3,42,0.00,,BKN230,0.00,VWS V14.00,2013-01-19 09:02:00,
2013-01-19 03:07:00,38.8,17.7,28.73,South,170,5.8,8.1,42,0.00,,BKN230,0.00,VWS V14.00,2013-01-19 09:07:00,
2013-01-19 03:12:00,38.8,17.7,28.70,SSE,164,0.0,6.3,42,0.00,,BKN230,0.00,VWS V14.00,2013-01-19 09:12:00,
2013-01-19 03:17:00,38.8,17.7,28.70,SE,135,3.1,6.3,42,0.00,,BKN230,0.00,VWS V14.00,2013-01-19 09:17:00,
2013-01-19 03:22:00,38.7,18.1,28.70,SSE,162,2.7,4.9,43,0.00,,BKN230,0.00,VWS V14.00,2013-01-19 09:22:00,
2013-01-19 03:27:00,38.7,18.1,28.70,SSE,154,5.4,7.6,43,0.00,,BKN230,0.00,VWS V14.00,2013-01-19 09:27:00,
2013-01-19 03:32:00,38.5,17.4,28.70,SE,141,4.9,4.9,42,0.00,,BKN230,0.00,VWS V14.00,2013-01-19 09:32:00,
2013-01-19 03:37:00,38.1,17.6,28.70,SSE,147,2.7,4.9,43,0.00,,BKN230,0.00,VWS V14.00,2013-01-19 09:37:00,
2013-01-19 03:42:00,37.9,18.0,28.70,SE,146,2.7,5.8,44,0.00,,BKN230,0.00,VWS V14.00,2013-01-19 09:42:00,
2013-01-19 03:47:00,37.6,17.7,28.70,SSE,147,3.6,6.3,44,0.00,,BKN230,0.00,VWS V14.00,2013-01-19 09:47:00,
2013-01-19 03:52:00,37.6,18.2,28.70,SSE,151,3.6,6.3,45,0.00,,BKN230,0.00,VWS V14.00,2013-01-19 09:52:00,
2013-01-19 03:57:00,37.6,18.7,28.70,SSE,156,3.1,6.3,46,0.00,,BKN230,0.00,VWS V14.00,2013-01-19 09:57:00,
2013-01-19 04:02:00,37.8,18.9,28.70,SE,143,3.6,7.6,46,0.00,,SCT220,0.00,VWS V14.00,2013-01-19 10:02:00,
2013-01-19 04:07:00,37.8,18.3,28.70,SE,139,4.0,8.7,45,0.00,,SCT220,0.00,VWS V14.00,2013-01-19 10:07:00,
2013-01-19 04:12:00,37.9,19.0,28.70,SSE,152,5.4,7.6,46,0.00,,SCT220,0.00,VWS V14.00,2013-01-19 10:12:00,
2013-01-19 04:17:00,37.9,18.5,28.70,SE,139,4.9,8.1,45,0.00,,SCT220,0.00,VWS V14.00,2013-01-19 10:17:00,
2013-01-19 04:22:00,37.8,18.3,28.70,SE,138,3.6,5.8,45,0.00,,SCT220,0.00,VWS V14.00,2013-01-19 10:22:00,
2013-01-19 04:27:00,37.8,18.3,28.70,SE,136,3.1,8.7,45,0.00,,SCT220,0.00,VWS V14.00,2013-01-19 10:27:00,
2013-01-19 04:32:00,37.6,18.7,28.70,SSE,157,4.9,8.7,46,0.00,,SCT220,0.00,VWS V14.00,2013-01-19 10:32:00,
2013-01-19 04:37:00,37.6,18.7,28.70,SE,131,3.6,8.7,46,0.00,,SCT220,0.00,VWS V14.00,2013-01-19 10:37:00,
2013-01-19 04:42:00,37.6,18.7,28.70,SE,139,4.0,8.3,46,0.00,,SCT220,0.00,VWS V14.00,2013-01-19 10:42:00,
2013-01-19 04:47:00,37.6,18.7,28.70,SE,141,7.6,8.3,46,0.00,,SCT220,0.00,VWS V14.00,2013-01-19 10:47:00,
2013-01-19 04:52:00,37.4,18.5,28.70,SSE,157,0.0,4.0,46,0.00,,SCT220,0.00,VWS V14.00,2013-01-19 10:52:00,
2013-01-19 04:57:00,37.4,18.5,28.70,SSE,151,3.6,5.8,46,0.00,,SCT220,0.00,VWS V14.00,2013-01-19 10:57:00,
2013-01-19 05:02:00,37.0,18.7,28.70,SSE,148,0.0,3.6,47,0.00,,BKN220,0.00,VWS V14.00,2013-01-19 11:02:00,
2013-01-19 05:07:00,36.9,19.0,28.70,South,178,0.0,3.6,48,0.00,,BKN220,0.00,VWS V14.00,2013-01-19 11:07:00,
2013-01-19 05:12:00,37.0,19.7,28.70,SSE,155,2.2,5.4,49,0.00,,BKN220,0.00,VWS V14.00,2013-01-19 11:12:00,
2013-01-19 06:47:00,37.0,19.2,28.70,SE,146,7.2,8.1,48,0.00,,BKN220,0.00,VWS V14.00,2013-01-19 12:47:00,
2013-01-19 06:48:00,37.0,19.2,28.70,SE,126,4.0,8.1,48,0.00,,BKN220,0.00,VWS V14.00,2013-01-19 12:48:00,
2013-01-19 06:53:00,36.9,18.5,28.70,SSE,154,5.4,5.8,47,0.00,,BKN220,0.00,VWS V14.00,2013-01-19 12:53:00,
2013-01-19 06:58:00,36.9,19.0,28.67,SE,137,5.8,8.7,48,0.00,,OVC220,0.00,VWS V14.00,2013-01-19 12:58:00,
2013-01-19 07:03:00,36.9,19.0,28.67,SSE,149,5.4,8.3,48,0.00,,OVC220,0.00,VWS V14.00,2013-01-19 13:03:00,
2013-01-19 07:08:00,36.7,18.9,28.67,SSE,152,5.8,8.3,48,0.00,,OVC220,0.00,VWS V14.00,2013-01-19 13:08:00,
2013-01-19 07:13:00,36.9,19.0,28.67,SE,136,4.5,8.7,48,0.00,,OVC220,0.00,VWS V14.00,2013-01-19 13:13:00,
2013-01-19 07:18:00,36.9,19.0,28.67,SE,135,5.8,8.7,48,0.00,,OVC220,0.00,VWS V14.00,2013-01-19 13:18:00,
2013-01-19 07:23:00,36.7,19.3,28.67,SSE,155,3.6,10.1,49,0.00,,OVC220,0.00,VWS V14.00,2013-01-19 13:23:00,
2013-01-19 07:28:00,36.9,19.0,28.67,SE,126,6.3,10.1,48,0.00,,OVC220,0.00,VWS V14.00,2013-01-19 13:28:00,
2013-01-19 07:33:00,36.9,19.0,28.67,SSE,147,4.0,8.1,48,0.00,,OVC220,0.00,VWS V14.00,2013-01-19 13:33:00,
2013-01-19 07:38:00,36.9,19.0,28.67,SE,136,5.4,8.1,48,0.00,,OVC220,0.00,VWS V14.00,2013-01-19 13:38:00,
2013-01-19 07:43:00,36.9,19.0,28.67,SE,126,5.4,7.6,48,0.00,,OVC220,0.00,VWS V14.00,2013-01-19 13:43:00,
2013-01-19 07:48:00,36.9,18.5,28.67,South,169,2.2,7.6,47,0.00,,OVC220,0.00,VWS V14.00,2013-01-19 13:48:00,
2013-01-19 07:53:00,37.2,18.4,28.67,SE,135,6.3,9.6,46,0.00,,OVC220,0.00,VWS V14.00,2013-01-19 13:53:00,
2013-01-19 07:58:00,37.4,18.0,28.70,SE,129,8.7,9.6,45,0.00,,OVC250,0.00,VWS V14.00,2013-01-19 13:58:00,
2013-01-19 08:03:00,37.4,18.0,28.70,SSW,213,3.1,6.3,45,0.00,,OVC250,0.00,VWS V14.00,2013-01-19 14:03:00,
2013-01-19 08:08:00,37.6,17.7,28.70,West,269,4.0,8.1,44,0.00,,OVC250,0.00,VWS V14.00,2013-01-19 14:08:00,
2013-01-19 08:13:00,37.4,17.5,28.73,SE,130,5.8,6.3,44,0.00,,OVC250,0.00,VWS V14.00,2013-01-19 14:13:00,
2013-01-19 08:18:00,37.6,17.7,28.73,South,183,0.0,6.3,44,0.00,,OVC250,0.00,VWS V14.00,2013-01-19 14:18:00,
2013-01-19 08:23:00,37.9,17.5,28.73,SE,137,6.3,10.1,43,0.00,,OVC250,0.00,VWS V14.00,2013-01-19 14:23:00,
2013-01-19 08:28:00,38.1,17.6,28.73,SE,145,8.3,10.5,43,0.00,,OVC250,0.00,VWS V14.00,2013-01-19 14:28:00,
2013-01-19 08:33:00,38.1,17.1,28.73,SE,141,10.5,10.5,42,0.00,,OVC250,0.00,VWS V14.00,2013-01-19 14:33:00,
2013-01-19 08:38:00,38.1,17.1,28.73,SSE,166,5.4,10.5,42,0.00,,OVC250,0.00,VWS V14.00,2013-01-19 14:38:00,
2013-01-19 08:43:00,38.1,17.1,28.70,SSE,158,2.7,6.3,42,0.00,,OVC250,0.00,VWS V14.00,2013-01-19 14:43:00,
2013-01-19 08:48:00,38.3,17.2,28.70,ESE,119,3.6,6.3,42,0.00,,OVC250,0.00,VWS V14.00,2013-01-19 14:48:00,
2013-01-19 08:53:00,38.5,16.8,28.70,SE,145,4.9,10.5,41,0.00,,OVC250,0.00,VWS V14.00,2013-01-19 14:53:00,
2013-01-19 08:58:00,38.5,16.8,28.70,SSE,156,3.1,10.5,41,0.00,,OVC250,0.00,VWS V14.00,2013-01-19 14:58:00,
2013-01-19 09:03:00,38.7,17.0,28.70,SE,146,5.8,7.6,41,0.00,,OVC250,0.00,VWS V14.00,2013-01-19 15:03:00,
2013-01-19 09:08:00,38.8,17.2,28.70,SSE,151,4.0,7.6,41,0.00,,OVC250,0.00,VWS V14.00,2013-01-19 15:08:00,
2013-01-19 09:13:00,39.0,16.8,28.73,South,190,3.1,3.6,40,0.00,,OVC250,0.00,VWS V14.00,2013-01-19 15:13:00,
2013-01-19 09:18:00,39.2,16.9,28.73,South,169,4.9,8.1,40,0.00,,OVC250,0.00,VWS V14.00,2013-01-19 15:18:00,
2013-01-19 09:23:00,39.4,16.5,28.73,SSW,204,3.1,5.4,39,0.00,,OVC250,0.00,VWS V14.00,2013-01-19 15:23:00,
2013-01-19 09:28:00,39.9,17.0,28.73,SSW,195,3.1,5.4,39,0.00,,OVC250,0.00,VWS V14.00,2013-01-19 15:28:00,
2013-01-19 09:33:00,40.6,17.0,28.73,SSE,161,2.2,3.6,38,0.00,,OVC250,0.00,VWS V14.00,2013-01-19 15:33:00,
2013-01-19 09:38:00,40.3,16.1,28.73,South,188,0.0,4.9,37,0.00,,OVC250,0.00,VWS V14.00,2013-01-19 15:38:00,
2013-01-19 09:43:00,39.6,16.1,28.73,South,186,0.0,3.6,38,0.00,,OVC250,0.00,VWS V14.00,2013-01-19 15:43:00,
2013-01-19 09:48:00,39.0,16.2,28.73,SSE,155,5.4,5.4,39,0.00,,OVC250,0.00,VWS V14.00,2013-01-19 15:48:00,
2013-01-19 09:53:00,38.7,15.9,28.73,SSE,151,0.0,3.6,39,0.00,,OVC250,0.00,VWS V14.00,2013-01-19 15:53:00,
2013-01-19 09:58:00,39.0,17.3,28.76,SE,138,3.1,3.6,41,0.00,,SCT250,0.00,VWS V14.00,2013-01-19 15:58:00,
2013-01-19 10:03:00,42.3,15.9,28.76,SSE,152,2.7,4.0,34,0.00,,SCT250,0.00,VWS V14.00,2013-01-19 16:03:00,
2013-01-19 10:08:00,44.4,14.2,28.76,South,187,3.6,6.3,29,0.00,,SCT250,0.00,VWS V14.00,2013-01-19 16:08:00,
2013-01-19 10:13:00,44.8,13.7,28.76,SSE,166,3.1,6.7,28,0.00,,SCT250,0.00,VWS V14.00,2013-01-19 16:13:00,
2013-01-19 10:18:00,45.5,14.3,28.76,SSW,195,3.1,7.6,28,0.00,,SCT250,0.00,VWS V14.00,2013-01-19 16:18:00,
2013-01-19 10:23:00,45.3,14.1,28.76,South,185,3.6,6.3,28,0.00,,SCT250,0.00,VWS V14.00,2013-01-19 16:23:00,
2013-01-19 10:28:00,45.1,14.0,28.76,SW,217,6.3,7.2,28,0.00,,SCT250,0.00,VWS V14.00,2013-01-19 16:28:00,
2013-01-19 10:33:00,45.3,14.1,28.76,SSE,166,2.7,12.3,28,0.00,,SCT250,0.00,VWS V14.00,2013-01-19 16:33:00,
2013-01-19 10:38:00,46.4,14.2,28.76,South,169,2.7,12.3,27,0.00,,SCT250,0.00,VWS V14.00,2013-01-19 16:38:00,
2013-01-19 10:43:00,46.8,14.6,28.76,SSW,192,2.7,8.3,27,0.00,,SCT250,0.00,VWS V14.00,2013-01-19 16:43:00,
2013-01-19 10:48:00,46.9,14.7,28.76,SSW,193,4.0,8.3,27,0.00,,SCT250,0.00,VWS V14.00,2013-01-19 16:48:00,
2013-01-19 10:53:00,47.3,15.0,28.76,South,189,4.0,6.3,27,0.00,,SCT250,0.00,VWS V14.00,2013-01-19 16:53:00,
2013-01-19 10:58:00,47.3,12.4,28.76,SSW,205,3.1,17.0,24,0.00,,FEW150,0.00,VWS V14.00,2013-01-19 16:58:00,
2013-01-19 11:03:00,47.1,12.2,28.76,SSW,192,5.8,10.5,24,0.00,,FEW150,0.00,VWS V14.00,2013-01-19 17:03:00,
2013-01-19 11:08:00,47.3,15.0,28.76,SE,145,3.1,10.5,27,0.00,,FEW150,0.00,VWS V14.00,2013-01-19 17:08:00,
2013-01-19 11:13:00,47.8,12.8,28.73,SSW,196,4.9,8.1,24,0.00,,FEW150,0.00,VWS V14.00,2013-01-19 17:13:00,
2013-01-19 11:19:00,48.4,13.3,28.73,SW,228,9.2,9.2,24,0.00,,FEW150,0.00,VWS V14.00,2013-01-19 17:19:00,
2013-01-19 11:24:00,48.2,13.1,28.73,SSE,156,5.4,12.8,24,0.00,,FEW150,0.00,VWS V14.00,2013-01-19 17:24:00,
2013-01-19 11:29:00,48.6,13.4,28.73,South,173,5.8,14.5,24,0.00,,FEW150,0.00,VWS V14.00,2013-01-19 17:29:00,
2013-01-19 11:34:00,49.5,14.2,28.73,South,169,3.1,11.4,24,0.00,,FEW150,0.00,VWS V14.00,2013-01-19 17:34:00,
2013-01-19 11:39:00,50.4,14.9,28.73,SW,218,5.8,11.4,24,0.00,,FEW150,0.00,VWS V14.00,2013-01-19 17:39:00,
2013-01-19 11:44:00,50.2,14.8,28.73,SW,215,4.9,12.8,24,0.00,,FEW150,0.00,VWS V14.00,2013-01-19 17:44:00,
2013-01-19 11:49:00,50.5,12.1,28.73,SSW,194,4.0,12.8,21,0.00,,FEW150,0.00,VWS V14.00,2013-01-19 17:49:00,
2013-01-19 11:54:00,51.3,12.7,28.73,South,179,5.8,6.7,21,0.00,,FEW150,0.00,VWS V14.00,2013-01-19 17:54:00,
2013-01-19 11:59:00,50.9,12.4,28.73,SSW,212,5.4,11.9,21,0.00,,FEW150,0.00,VWS V14.00,2013-01-19 17:59:00,
2013-01-19 12:04:00,51.3,12.7,28.73,SSE,168,2.7,11.9,21,0.00,,FEW250,0.00,VWS V14.00,2013-01-19 18:04:00,
2013-01-19 12:09:00,51.3,12.7,28.73,West,261,4.9,13.2,21,0.00,,FEW250,0.00,VWS V14.00,2013-01-19 18:09:00,
2013-01-19 12:14:00,51.8,13.1,28.73,SW,226,8.7,12.3,21,0.00,,FEW250,0.00,VWS V14.00,2013-01-19 18:14:00,
2013-01-19 12:19:00,52.2,13.4,28.73,SW,217,3.1,12.3,21,0.00,,FEW250,0.00,VWS V14.00,2013-01-19 18:19:00,
2013-01-19 12:24:00,52.3,13.6,28.73,SSW,197,6.3,8.7,21,0.00,,FEW250,0.00,VWS V14.00,2013-01-19 18:24:00,
2013-01-19 12:30:00,52.2,13.4,28.73,SW,231,7.6,11.0,21,0.00,,FEW250,0.00,VWS V14.00,2013-01-19 18:30:00,
2013-01-19 12:35:00,52.7,13.9,28.73,South,183,3.6,11.0,21,0.00,,FEW250,0.00,VWS V14.00,2013-01-19 18:35:00,
2013-01-19 12:40:00,52.7,13.9,28.73,WSW,237,2.7,4.0,21,0.00,,FEW250,0.00,VWS V14.00,2013-01-19 18:40:00,
2013-01-19 12:45:00,52.0,13.3,28.73,SW,214,11.0,17.4,21,0.00,,FEW250,0.00,VWS V14.00,2013-01-19 18:45:00,
2013-01-19 12:50:00,52.5,13.7,28.73,SE,144,5.4,5.4,21,0.00,,FEW250,0.00,VWS V14.00,2013-01-19 18:50:00,
2013-01-19 12:55:00,52.9,14.0,28.73,SSW,211,3.6,16.8,21,0.00,,FEW250,0.00,VWS V14.00,2013-01-19 18:55:00,
2013-01-19 13:00:00,52.7,13.9,28.73,SW,229,6.3,16.8,21,0.00,,FEW250,0.00,VWS V14.00,2013-01-19 19:00:00,
2013-01-19 13:05:00,52.3,13.6,28.73,SW,222,8.7,14.5,21,0.00,,CLR,0.00,VWS V14.00,2013-01-19 19:05:00,
2013-01-19 13:10:00,51.8,13.1,28.73,SSE,165,8.7,15.9,21,0.00,,CLR,0.00,VWS V14.00,2013-01-19 19:10:00,
2013-01-19 13:16:00,51.8,13.1,28.73,South,170,8.3,17.0,21,0.00,,CLR,0.00,VWS V14.00,2013-01-19 19:16:00,
2013-01-19 13:21:00,51.6,13.0,28.73,SSW,197,10.5,10.5,21,0.00,,CLR,0.00,VWS V14.00,2013-01-19 19:21:00,
2013-01-19 13:27:00,52.5,13.7,28.73,SE,135,6.3,10.5,21,0.00,,CLR,0.00,VWS V14.00,2013-01-19 19:27:00,
2013-01-19 13:32:00,51.6,13.0,28.73,SSE,151,5.8,8.1,21,0.00,,CLR,0.00,VWS V14.00,2013-01-19 19:32:00,
2013-01-19 13:37:00,50.9,12.4,28.73,SSW,213,3.6,22.8,21,0.00,,CLR,0.00,VWS V14.00,2013-01-19 19:37:00,
2013-01-19 13:42:00,51.1,15.6,28.76,SW,236,8.7,10.5,24,0.00,,CLR,0.00,VWS V14.00,2013-01-19 19:42:00,
2013-01-19 13:47:00,50.9,15.4,28.76,SW,214,3.1,11.0,24,0.00,,CLR,0.00,VWS V14.00,2013-01-19 19:47:00,
2013-01-19 13:52:00,50.9,15.4,28.76,SSW,205,3.1,12.3,24,0.00,,CLR,0.00,VWS V14.00,2013-01-19 19:52:00,
2013-01-19 13:58:00,50.2,14.8,28.76,SSW,207,11.0,17.4,24,0.00,,CLR,0.00,VWS V14.00,2013-01-19 19:58:00,
2013-01-19 14:03:00,50.0,14.6,28.76,SSW,192,10.5,17.4,24,0.00,,CLR,0.00,VWS V14.00,2013-01-19 20:03:00,
2013-01-19 14:08:00,50.4,14.9,28.76,SE,126,4.9,17.4,24,0.00,,CLR,0.00,VWS V14.00,2013-01-19 20:08:00,
2013-01-19 14:13:00,50.4,14.9,28.76,SSW,199,7.6,12.3,24,0.00,,CLR,0.00,VWS V14.00,2013-01-19 20:13:00,
2013-01-19 14:18:00,50.4,14.9,28.76,SW,235,6.3,14.1,24,0.00,,CLR,0.00,VWS V14.00,2013-01-19 20:18:00,
2013-01-19 14:23:00,50.4,14.9,28.76,SSW,192,5.4,17.0,24,0.00,,CLR,0.00,VWS V14.00,2013-01-19 20:23:00,
2013-01-19 14:28:00,50.5,15.1,28.76,SSE,168,5.8,17.0,24,0.00,,CLR,0.00,VWS V14.00,2013-01-19 20:28:00,
2013-01-19 14:34:00,50.2,14.8,28.76,WSW,258,4.0,17.0,24,0.00,,CLR,0.00,VWS V14.00,2013-01-19 20:34:00,
2013-01-19 14:39:00,50.2,14.8,28.76,SSW,192,6.7,17.0,24,0.00,,CLR,0.00,VWS V14.00,2013-01-19 20:39:00,
2013-01-19 14:44:00,50.2,14.8,28.76,SW,217,6.3,12.3,24,0.00,,CLR,0.00,VWS V14.00,2013-01-19 20:44:00,
2013-01-19 14:49:00,50.5,15.1,28.76,SW,226,17.0,17.0,24,0.00,,CLR,0.00,VWS V14.00,2013-01-19 20:49:00,
2013-01-19 14:54:00,50.5,15.1,28.76,South,186,5.4,10.5,24,0.00,,CLR,0.00,VWS V14.00,2013-01-19 20:54:00,
2013-01-19 15:00:00,50.4,14.9,28.76,SE,131,8.3,15.4,24,0.00,,CLR,0.00,VWS V14.00,2013-01-19 21:00:00,
2013-01-19 15:05:00,50.7,15.3,28.76,WSW,241,5.4,12.8,24,0.00,,CLR,0.00,VWS V14.00,2013-01-19 21:05:00,
2013-01-19 15:10:00,50.4,14.9,28.79,SW,222,6.3,8.7,24,0.00,,CLR,0.00,VWS V14.00,2013-01-19 21:10:00,
2013-01-19 15:15:00,51.1,15.6,28.79,WNW,290,5.8,22.4,24,0.00,,CLR,0.00,VWS V14.00,2013-01-19 21:15:00,
2013-01-19 15:20:00,51.4,15.9,28.79,SSW,208,4.0,6.3,24,0.00,,CLR,0.00,VWS V14.00,2013-01-19 21:20:00,
2013-01-19 15:25:00,50.7,15.3,28.79,SW,224,8.1,17.0,24,0.00,,CLR,0.00,VWS V14.00,2013-01-19 21:25:00,
2013-01-19 15:30:00,50.7,15.3,28.79,West,272,8.1,15.0,24,0.00,,CLR,0.00,VWS V14.00,2013-01-19 21:30:00,
2013-01-19 15:36:00,50.0,16.5,28.79,SW,229,11.0,15.0,26,0.00,,CLR,0.00,VWS V14.00,2013-01-19 21:36:00,
2013-01-19 15:41:00,50.7,17.1,28.79,WNW,289,8.7,11.0,26,0.00,,CLR,0.00,VWS V14.00,2013-01-19 21:41:00,
2013-01-19 15:46:00,50.4,16.8,28.79,SSW,194,13.6,16.8,26,0.00,,CLR,0.00,VWS V14.00,2013-01-19 21:46:00,
2013-01-19 15:51:00,49.8,16.3,28.79,SW,232,8.7,17.0,26,0.00,,CLR,0.00,VWS V14.00,2013-01-19 21:51:00,
2013-01-19 15:56:00,50.0,16.5,28.82,WSW,250,5.4,17.0,26,0.00,,CLR,0.00,VWS V14.00,2013-01-19 21:56:00,
2013-01-19 16:01:00,49.1,15.7,28.82,SW,233,11.4,13.2,26,0.00,,CLR,0.00,VWS V14.00,2013-01-19 22:01:00,
2013-01-19 16:06:00,48.9,16.4,28.82,WSW,241,8.7,16.8,27,0.00,,CLR,0.00,VWS V14.00,2013-01-19 22:06:00,
2013-01-19 16:12:00,48.9,16.4,28.82,SW,227,10.5,11.0,27,0.00,,CLR,0.00,VWS V14.00,2013-01-19 22:12:00,
2013-01-19 16:17:00,49.5,16.9,28.82,South,186,13.2,13.2,27,0.00,,CLR,0.00,VWS V14.00,2013-01-19 22:17:00,
2013-01-19 16:22:00,48.6,16.1,28.82,South,191,8.3,17.4,27,0.00,,CLR,0.00,VWS V14.00,2013-01-19 22:22:00,
2013-01-19 16:27:00,48.9,16.4,28.85,SSW,192,6.3,18.8,27,0.00,,CLR,0.00,VWS V14.00,2013-01-19 22:27:00,
2013-01-19 16:32:00,48.7,16.3,28.85,SW,220,10.5,11.0,27,0.00,,CLR,0.00,VWS V14.00,2013-01-19 22:32:00,
2013-01-19 16:37:00,48.2,16.6,28.85,South,179,7.2,15.0,28,0.00,,CLR,0.00,VWS V14.00,2013-01-19 22:37:00,
2013-01-19 16:42:00,48.0,16.5,28.85,SW,234,9.2,15.4,28,0.00,,CLR,0.00,VWS V14.00,2013-01-19 22:42:00,
2013-01-19 16:47:00,47.7,17.0,28.85,SSW,209,8.7,15.4,29,0.00,,CLR,0.00,VWS V14.00,2013-01-19 22:47:00,
2013-01-19 16:52:00,46.8,16.2,28.85,SSW,203,2.7,8.7,29,0.00,,CLR,0.00,VWS V14.00,2013-01-19 22:52:00,
2013-01-19 16:57:00,46.4,17.4,28.88,SW,222,2.7,8.7,31,0.00,,CLR,0.00,VWS V14.00,2013-01-19 22:57:00,
2013-01-19 17:02:00,46.2,18.0,28.88,WSW,248,4.0,12.8,32,0.00,,FEW038,0.00,VWS V14.00,2013-01-19 23:02:00,
2013-01-19 17:08:00,46.0,16.4,28.88,SSE,155,6.7,15.4,30,0.00,,FEW038,0.00,VWS V14.00,2013-01-19 23:08:00,
2013-01-19 17:13:00,45.3,15.7,28.88,SW,225,3.6,20.6,30,0.00,,FEW038,0.00,VWS V14.00,2013-01-19 23:13:00,
2013-01-19 17:18:00,45.3,15.7,28.88,SW,217,8.7,20.6,30,0.00,,FEW038,0.00,VWS V14.00,2013-01-19 23:18:00,
2013-01-19 17:23:00,44.4,15.7,28.88,WSW,243,6.3,8.7,31,0.00,,FEW038,0.00,VWS V14.00,2013-01-19 23:23:00,
2013-01-19 17:28:00,44.6,16.6,28.88,SSW,199,8.3,15.4,32,0.00,,FEW038,0.00,VWS V14.00,2013-01-19 23:28:00,
2013-01-19 17:33:00,44.1,16.8,28.88,South,185,2.7,10.5,33,0.00,,FEW038,0.00,VWS V14.00,2013-01-19 23:33:00,
2013-01-19 17:38:00,43.7,19.1,28.88,SSE,154,7.6,10.5,37,0.00,,FEW038,0.00,VWS V14.00,2013-01-19 23:38:00,
2013-01-19 17:43:00,43.2,19.3,28.88,South,182,7.6,17.4,38,0.00,,FEW038,0.00,VWS V14.00,2013-01-19 23:43:00,
2013-01-19 17:49:00,43.0,19.7,28.88,SW,219,5.4,17.4,39,0.00,,FEW038,0.00,VWS V14.00,2013-01-19 23:49:00,
2013-01-19 17:54:00,42.6,19.4,28.88,SSW,209,4.0,10.1,39,0.00,,FEW038,0.00,VWS V14.00,2013-01-19 23:54:00,
2013-01-19 17:59:00,42.3,19.7,28.91,SSW,200,8.3,10.1,40,0.00,,CLR,0.00,VWS V14.00,2013-01-19 23:59:00,
2013-01-19 18:04:00,41.7,19.2,28.91,SW,230,0.0,10.1,40,0.00,,CLR,0.00,VWS V14.00,2013-01-20 00:04:00,
2013-01-19 18:09:00,41.2,19.3,28.91,SSW,211,3.1,10.1,41,0.00,,CLR,0.00,VWS V14.00,2013-01-20 00:09:00,
2013-01-19 18:14:00,41.9,19.4,28.91,South,181,13.2,15.4,40,0.00,,CLR,0.00,VWS V14.00,2013-01-20 00:14:00,
2013-01-19 18:19:00,41.9,18.8,28.91,SSW,212,9.6,15.4,39,0.00,,CLR,0.00,VWS V14.00,2013-01-20 00:19:00,
2013-01-19 18:24:00,41.7,19.2,28.91,SW,228,3.6,15.0,40,0.00,,CLR,0.00,VWS V14.00,2013-01-20 00:24:00,
2013-01-19 18:29:00,41.4,18.3,28.91,SSW,206,12.3,15.0,39,0.00,,CLR,0.00,VWS V14.00,2013-01-20 00:29:00,
2013-01-19 18:34:00,41.4,17.7,28.91,SSW,199,5.8,15.4,38,0.00,,CLR,0.00,VWS V14.00,2013-01-20 00:34:00,
2013-01-19 18:39:00,41.5,17.8,28.91,SSE,148,11.0,15.4,38,0.00,,CLR,0.00,VWS V14.00,2013-01-20 00:39:00,
2013-01-19 18:44:00,41.2,17.5,28.94,SSW,197,11.0,15.4,38,0.00,,CLR,0.00,VWS V14.00,2013-01-20 00:44:00,
2013-01-19 18:49:00,41.4,16.4,28.94,SE,146,13.2,22.8,36,0.00,,CLR,0.00,VWS V14.00,2013-01-20 00:49:00,
2013-01-19 18:54:00,41.0,16.7,28.94,South,179,7.6,15.4,37,0.00,,CLR,0.00,VWS V14.00,2013-01-20 00:54:00,
2013-01-19 18:59:00,40.6,16.4,28.91,SW,230,8.1,15.4,37,0.00,,CLR,0.00,VWS V14.00,2013-01-20 00:59:00,
2013-01-19 19:04:00,40.6,16.4,28.91,SW,230,5.4,15.4,37,0.00,,FEW038,0.00,VWS V14.00,2013-01-20 01:04:00,
2013-01-19 19:09:00,40.5,15.6,28.91,SSW,200,8.7,17.9,36,0.00,,FEW038,0.00,VWS V14.00,2013-01-20 01:09:00,
2013-01-19 19:14:00,40.3,15.5,28.94,WSW,243,5.8,14.5,36,0.00,,FEW038,0.00,VWS V14.00,2013-01-20 01:14:00,
2013-01-19 19:19:00,39.9,15.8,28.94,SSW,208,8.1,14.5,37,0.00,,FEW038,0.00,VWS V14.00,2013-01-20 01:19:00,
2013-01-19 19:25:00,40.1,15.9,28.97,SW,218,11.9,14.1,37,0.00,,FEW038,0.00,VWS V14.00,2013-01-20 01:25:00,
2013-01-19 19:30:00,39.7,15.6,28.97,WNW,287,6.3,14.1,37,0.00,,FEW038,0.00,VWS V14.00,2013-01-20 01:30:00,
2013-01-19 19:35:00,38.8,16.0,28.97,SW,226,4.0,16.3,39,0.00,,FEW038,0.00,VWS V14.00,2013-01-20 01:35:00,
2013-01-19 19:40:00,38.5,15.7,28.97,SW,223,6.7,21.9,39,0.00,,FEW038,0.00,VWS V14.00,2013-01-20 01:40:00,
2013-01-19 19:45:00,37.8,13.8,28.97,South,185,5.4,15.4,37,0.00,,FEW038,0.00,VWS V14.00,2013-01-20 01:45:00,
2013-01-19 19:50:00,37.4,11.6,28.97,WSW,251,4.0,16.3,34,0.00,,FEW038,0.00,VWS V14.00,2013-01-20 01:50:00,
2013-01-19 19:55:00,37.4,9.5,28.97,SW,224,13.2,15.4,31,0.00,,FEW038,0.00,VWS V14.00,2013-01-20 01:55:00,
2013-01-19 20:00:00,37.0,9.2,28.97,South,179,8.7,10.5,31,0.00,,SCT040,0.00,VWS V14.00,2013-01-20 02:00:00,
2013-01-19 20:05:00,36.7,8.2,28.97,SW,227,8.7,14.1,30,0.00,,SCT040,0.00,VWS V14.00,2013-01-20 02:05:00,
2013-01-19 20:10:00,35.8,7.4,29.00,SSW,194,7.6,7.6,30,0.00,,SCT040,0.00,VWS V14.00,2013-01-20 02:10:00,
2013-01-19 20:15:00,35.4,7.1,29.00,SW,234,8.1,19.7,30,0.00,,SCT040,0.00,VWS V14.00,2013-01-20 02:15:00,
2013-01-19 20:20:00,34.7,6.4,29.00,SSW,201,3.1,6.3,30,0.00,,SCT040,0.00,VWS V14.00,2013-01-20 02:20:00,
2013-01-19 20:25:00,34.0,3.5,29.00,West,278,5.4,17.0,27,0.00,,SCT040,0.00,VWS V14.00,2013-01-20 02:25:00,
2013-01-19 20:30:00,33.1,1.1,29.00,SSE,165,7.6,8.1,25,0.00,,SCT040,0.00,VWS V14.00,2013-01-20 02:30:00,
2013-01-19 20:35:00,32.5,-1.1,29.00,WSW,237,15.0,15.0,23,0.00,,SCT040,0.00,VWS V14.00,2013-01-20 02:35:00,
2013-01-19 20:40:00,32.4,-1.3,29.00,SW,215,4.0,12.8,23,0.00,,SCT040,0.00,VWS V14.00,2013-01-20 02:40:00,
2013-01-19 20:45:00,31.5,-2.0,29.00,SSW,207,13.2,16.8,23,0.00,,SCT040,0.00,VWS V14.00,2013-01-20 02:45:00,
2013-01-19 20:50:00,30.7,-2.7,29.00,West,263,8.1,8.1,23,0.00,,SCT040,0.00,VWS V14.00,2013-01-20 02:50:00,
2013-01-19 20:56:00,30.2,-1.4,29.03,SSW,196,2.7,19.7,25,0.00,,SCT040,0.00,VWS V14.00,2013-01-20 02:56:00,
2013-01-19 21:01:00,29.8,-1.7,29.03,SSW,196,5.4,7.6,25,0.00,,FEW030,0.00,VWS V14.00,2013-01-20 03:01:00,
2013-01-19 21:06:00,29.5,-2.0,29.03,WSW,251,4.0,15.0,25,0.00,,FEW030,0.00,VWS V14.00,2013-01-20 03:06:00,
2013-01-19 21:11:00,29.1,0.1,29.03,SW,223,4.0,5.8,28,0.00,,FEW030,0.00,VWS V14.00,2013-01-20 03:11:00,
2013-01-19 21:16:00,28.8,1.2,29.03,SSW,210,8.7,19.2,30,0.00,,FEW030,0.00,VWS V14.00,2013-01-20 03:16:00,
2013-01-19 21:21:00,28.4,1.6,29.03,SW,216,10.5,10.5,31,0.00,,FEW030,0.00,VWS V14.00,2013-01-20 03:21:00,
2013-01-19 21:26:00,28.0,2.0,29.03,West,268,12.3,16.8,32,0.00,,FEW030,0.00,VWS V14.00,2013-01-20 03:26:00,
2013-01-19 21:31:00,27.3,2.0,29.03,WSW,247,5.4,6.7,33,0.00,,FEW030,0.00,VWS V14.00,2013-01-20 03:31:00,
2013-01-19 21:36:00,26.8,1.5,29.03,WSW,240,13.6,13.6,33,0.00,,FEW030,0.00,VWS V14.00,2013-01-20 03:36:00,
2013-01-19 21:41:00,26.1,0.2,29.06,NW,322,14.5,15.4,32,0.00,,FEW030,0.00,VWS V14.00,2013-01-20 03:41:00,
2013-01-19 21:46:00,25.3,0.3,29.06,SW,221,10.1,15.4,33,0.00,,FEW030,0.00,VWS V14.00,2013-01-20 03:46:00,
2013-01-19 21:51:00,25.0,0.6,29.06,SSW,210,10.1,17.4,34,0.00,,FEW030,0.00,VWS V14.00,2013-01-20 03:51:00,
2013-01-19 21:56:00,24.4,0.7,29.06,South,190,19.7,20.1,35,0.00,,FEW030,0.00,VWS V14.00,2013-01-20 03:56:00,
2013-01-19 22:01:00,24.4,0.7,29.06,WSW,239,8.1,14.5,35,0.00,,FEW025,0.00,VWS V14.00,2013-01-20 04:01:00,
2013-01-19 22:06:00,23.9,0.2,29.06,WNW,286,3.6,15.0,35,0.00,,FEW025,0.00,VWS V14.00,2013-01-20 04:06:00,
2013-01-19 22:12:00,23.5,-0.1,29.09,SSW,207,4.0,15.9,35,0.00,,FEW025,0.00,VWS V14.00,2013-01-20 04:12:00,
2013-01-19 22:17:00,22.8,-0.1,29.09,WSW,237,8.1,15.9,36,0.00,,FEW025,0.00,VWS V14.00,2013-01-20 04:17:00,
2013-01-19 22:22:00,22.3,-1.2,29.09,NNW,335,8.7,12.3,35,0.00,,FEW025,0.00,VWS V14.00,2013-01-20 04:22:00,
2013-01-19 22:27:00,21.9,-2.1,29.12,WSW,258,5.4,12.3,34,0.00,,FEW025,0.00,VWS V14.00,2013-01-20 04:27:00,
2013-01-19 22:32:00,21.2,-2.8,29.12,WNW,288,8.3,11.0,34,0.00,,FEW025,0.00,VWS V14.00,2013-01-20 04:32:00,
2013-01-19 22:37:00,20.7,-3.3,29.12,WNW,289,4.0,14.1,34,0.00,,FEW025,0.00,VWS V14.00,2013-01-20 04:37:00,
2013-01-19 22:42:00,20.5,-4.0,29.12,WNW,291,7.6,14.5,33,0.00,,FEW025,0.00,VWS V14.00,2013-01-20 04:42:00,
2013-01-19 22:48:00,20.1,-4.4,29.12,SW,233,4.0,14.5,33,0.00,,FEW025,0.00,VWS V14.00,2013-01-20 04:48:00,
2013-01-19 22:53:00,19.9,-3.9,29.12,West,274,11.9,15.0,34,0.00,,FEW025,0.00,VWS V14.00,2013-01-20 04:53:00,
2013-01-19 22:58:00,19.4,-4.4,29.12,West,274,6.3,15.0,34,0.00,,FEW025,0.00,VWS V14.00,2013-01-20 04:58:00,
2013-01-19 23:01:00,19.4,-4.4,29.12,SSW,207,4.0,12.3,34,0.00,,FEW027,0.00,VWS V14.00,2013-01-20 05:01:00,
2013-01-19 23:02:00,19.2,-4.5,29.12,WSW,241,6.3,12.3,34,0.00,,FEW027,0.00,VWS V14.00,2013-01-20 05:02:00,
2013-01-19 23:03:00,19.2,-4.5,29.12,WSW,243,8.3,12.3,34,0.00,,FEW027,0.00,VWS V14.00,2013-01-20 05:03:00,
2013-01-19 23:08:00,19.0,-4.7,29.12,WNW,302,6.7,12.3,34,0.00,,FEW027,0.00,VWS V14.00,2013-01-20 05:08:00,
2013-01-19 23:13:00,19.0,-4.7,29.12,West,274,11.0,11.0,34,0.00,,FEW027,0.00,VWS V14.00,2013-01-20 05:13:00,
2013-01-19 23:18:00,18.7,-5.6,29.12,WNW,283,8.3,15.4,33,0.00,,FEW027,0.00,VWS V14.00,2013-01-20 05:18:00,
2013-01-19 23:23:00,18.5,-5.8,29.12,SSW,202,4.0,15.0,33,0.00,,FEW027,0.00,VWS V14.00,2013-01-20 05:23:00,
2013-01-19 23:28:00,18.1,-6.1,29.15,SSW,203,4.0,15.0,33,0.00,,FEW027,0.00,VWS V14.00,2013-01-20 05:28:00,
2013-01-19 23:33:00,17.6,-6.6,29.15,WNW,300,5.4,10.1,33,0.00,,FEW027,0.00,VWS V14.00,2013-01-20 05:33:00,
2013-01-19 23:38:00,17.8,-6.4,29.15,South,170,8.3,12.3,33,0.00,,FEW027,0.00,VWS V14.00,2013-01-20 05:38:00,
2013-01-19 23:43:00,17.2,-6.9,29.15,WSW,247,5.4,8.3,33,0.00,,FEW027,0.00,VWS V14.00,2013-01-20 05:43:00,
2013-01-19 23:48:00,17.1,-7.1,29.15,WSW,248,5.4,11.0,33,0.00,,FEW027,0.00,VWS V14.00,2013-01-20 05:48:00,
2013-01-19 23:53:00,16.7,-7.4,29.15,WNW,284,0.0,8.7,33,0.00,,FEW027,0.00,VWS V14.00,2013-01-20 05:53:00,
2013-01-19 23:58:00,16.2,-7.3,29.15,SSW,212,4.0,8.7,34,0.00,,FEW027,0.00,VWS V14.00,2013-01-20 05:58:00,